FW7746 Weather Reports


time (UTC)temp
C
wind
direction
speed
KPH
gust
KPH
rain 1hr
cm
rain 24hr
cm
rain mn
cm
humidity
%
barometer
mb
20260505130103 7 258 0.0 0.0 0.00 0.00 0.00 77 1009.2
20260505124103 7 281 0.0 0.0 0.00 0.00 0.00 77 1009.1
20260505123603 7 284 0.0 0.0 0.00 0.00 0.00 77 1009.1
20260505123104 7 284 0.0 0.0 0.00 0.00 0.00 76 1009.0
20260505121604 7 287 0.0 0.0 0.00 0.00 0.00 77 1008.8
20260505121103 7 287 0.0 0.0 0.00 0.00 0.00 77 1008.8
20260505120604 7 287 0.0 0.0 0.00 0.00 0.00 77 1008.8
20260505115103 7 287 0.0 0.0 0.00 0.00 0.00 76 1008.7
20260505114603 7 287 0.0 0.0 0.00 0.00 0.00 76 1008.7
20260505114103 8 287 0.0 0.0 0.00 0.00 0.00 76 1008.7
20260505113604 8 287 0.0 0.0 0.00 0.00 0.00 76 1008.8
20260505113103 8 287 0.0 0.0 0.00 0.00 0.00 76 1008.7
20260505112603 8 287 0.0 0.0 0.00 0.00 0.00 76 1008.7
20260505112103 8 287 0.0 0.0 0.00 0.00 0.00 75 1008.8
20260505111603 8 287 0.0 0.0 0.00 0.00 0.00 75 1008.7
20260505111103 8 287 0.0 0.0 0.00 0.00 0.00 75 1008.7
20260505110603 8 287 0.0 0.0 0.00 0.00 0.00 75 1008.7
20260505102103 8 292 0.0 0.0 0.00 0.00 0.00 74 1008.5
20260505101603 8 292 0.0 0.0 0.00 0.00 0.00 74 1008.4
20260505100603 9 292 0.0 0.0 0.00 0.00 0.00 74 1008.5
20260505100104 9 292 0.0 0.0 0.00 0.00 0.00 74 1008.6
20260505095603 9 292 0.0 0.0 0.00 0.00 0.00 74 1008.6
20260505095103 9 292 0.0 0.0 0.00 0.00 0.00 73 1008.5
20260505094604 9 324 0.0 0.0 0.00 0.00 0.00 72 1008.5
20260505094103 9 325 0.0 0.0 0.00 0.00 0.00 71 1008.5
20260505093603 9 325 0.0 0.0 0.00 0.00 0.00 71 1008.5
20260505093103 9 325 0.0 0.0 0.00 0.00 0.00 71 1008.6
20260505092603 9 325 0.0 0.0 0.00 0.00 0.00 70 1008.5
20260505092103 9 325 0.0 0.0 0.00 0.00 0.00 70 1008.6
20260505091103 9 325 0.0 0.0 0.00 0.00 0.00 69 1008.5
20260505090603 10 325 0.0 0.0 0.00 0.00 0.00 69 1008.4
20260505085603 10 325 0.0 0.0 0.00 0.00 0.00 69 1008.4
20260505085104 10 325 0.0 0.0 0.00 0.00 0.00 68 1008.4
20260505084603 10 325 0.0 0.0 0.00 0.00 0.00 68 1008.5
20260505084103 10 325 0.0 0.0 0.00 0.00 0.00 68 1008.5
20260505083603 10 325 0.0 0.0 0.00 0.00 0.00 67 1008.6
20260505083103 10 325 0.0 0.0 0.00 0.00 0.00 67 1008.6
20260505082604 10 325 0.0 0.0 0.00 0.00 0.00 66 1008.6
20260505082103 10 325 0.0 0.0 0.00 0.00 0.00 65 1008.6
20260505081603 10 325 0.0 0.0 0.00 0.00 0.00 64 1008.5
20260505081103 10 325 0.0 0.0 0.00 0.00 0.00 62 1008.5
20260505080603 10 325 0.0 0.0 0.00 0.00 0.00 61 1008.5
20260505080104 11 325 0.0 0.0 0.00 0.00 0.00 58 1008.4
20260505075603 11 325 0.0 0.0 0.00 0.00 0.00 56 1008.5
20260505075104 11 325 0.0 0.0 0.00 0.00 0.00 56 1008.6
20260505074603 11 325 0.0 0.0 0.00 0.00 0.00 55 1008.6
20260505073603 11 325 0.0 0.0 0.00 0.00 0.00 54 1008.6
20260505072604 11 325 0.0 0.0 0.00 0.00 0.00 53 1008.6
20260505072103 12 325 0.0 0.0 0.00 0.00 0.00 53 1008.6
20260505071603 12 325 0.0 0.0 0.00 0.00 0.00 52 1008.5
20260505071103 12 325 0.0 0.0 0.00 0.00 0.00 52 1008.5
20260505070603 12 325 0.0 0.0 0.00 0.00 0.00 51 1008.5
20260505070104 12 325 0.0 0.0 0.00 0.00 0.00 49 1008.2
20260505065603 12 325 0.0 0.0 0.00 0.00 0.00 49 1008.2
20260505065103 12 325 0.0 0.0 0.00 0.00 0.00 48 1008.2
20260505064103 13 325 0.0 0.0 0.00 0.00 0.00 47 1008.0
20260505063604 13 325 0.0 0.0 0.00 0.00 0.00 46 1007.8
20260505063103 13 325 0.0 0.0 0.00 0.00 0.00 45 1007.9
20260505062603 13 325 0.0 0.0 0.00 0.00 0.00 45 1007.9
20260505061604 14 325 0.0 0.0 0.00 0.00 0.00 43 1007.7
20260505060104 15 325 0.0 0.0 0.00 0.00 0.00 41 1007.7
20260505055603 15 325 0.0 0.0 0.00 0.00 0.00 40 1007.8
20260505055103 16 325 0.0 0.0 0.00 0.00 0.00 40 1007.8
20260505054603 16 325 0.0 0.0 0.00 0.00 0.00 39 1007.8
20260505054104 16 325 0.0 0.0 0.00 0.00 0.00 38 1007.7
20260505053604 16 325 0.0 0.0 0.00 0.00 0.00 38 1007.7
20260505053103 16 325 0.0 1.6 0.00 0.00 0.00 37 1007.6
20260505052604 16 319 0.0 0.0 0.00 0.00 0.00 38 1007.7
20260505052103 16 319 0.0 0.0 0.00 0.00 0.00 39 1007.8
20260505051603 16 319 0.0 0.0 0.00 0.00 0.00 38 1007.7
20260505051103 16 319 0.0 4.8 0.00 0.00 0.00 38 1007.7
20260505050603 16 2 0.0 4.8 0.00 0.00 0.00 39 1007.7
20260505050104 17 331 0.0 0.0 0.00 0.00 0.00 39 1007.6
20260505041604 17 339 1.6 8.0 0.00 0.00 0.00 43 1006.8
20260505041104 17 274 1.6 4.8 0.00 0.00 0.00 44 1006.7
20260505040604 17 308 0.0 14.5 0.00 0.00 0.00 44 1006.7
20260505040104 17 322 0.0 4.8 0.00 0.00 0.00 45 1006.6
20260505035103 17 312 0.0 4.8 0.00 0.00 0.00 45 1006.4
20260505034603 18 345 1.6 16.1 0.00 0.00 0.00 45 1006.4
20260505034103 18 316 1.6 9.7 0.00 0.00 0.00 44 1006.4
20260505033603 18 268 0.0 12.9 0.00 0.00 0.00 44 1006.3
20260505033103 18 328 4.8 16.1 0.00 0.00 0.00 43 1006.3
20260505032604 18 331 3.2 14.5 0.00 0.00 0.00 41 1006.2
20260505032103 19 337 1.6 19.3 0.00 0.00 0.00 40 1006.1
20260505031603 19 258 1.6 16.1 0.00 0.00 0.00 38 1006.0
20260505031103 19 312 0.0 14.5 0.00 0.00 0.00 36 1005.8
20260505030603 20 334 0.0 8.0 0.00 0.00 0.00 36 1005.9
20260505030104 20 327 3.2 19.3 0.00 0.00 0.00 34 1005.8
20260505025603 20 333 1.6 12.9 0.00 0.00 0.00 33 1005.8
20260505025104 20 278 1.6 16.1 0.00 0.00 0.00 33 1005.8
20260505024604 20 329 4.8 19.3 0.00 0.00 0.00 33 1005.5
20260505024103 20 233 3.2 14.5 0.00 0.00 0.00 33 1005.4
20260505023603 21 301 1.6 12.9 0.00 0.00 0.00 33 1005.3
20260505023103 21 275 4.8 16.1 0.00 0.00 0.00 33 1005.3
20260505022604 21 324 8.0 20.9 0.00 0.00 0.00 32 1005.2
20260505022104 21 305 6.4 19.3 0.00 0.00 0.00 32 1005.2
20260505021604 21 324 1.6 14.5 0.00 0.00 0.00 32 1005.2
20260505020603 22 349 8.0 24.1 0.00 0.00 0.00 31 1005.2
20260505020104 22 323 4.8 16.1 0.00 0.00 0.00 30 1005.2
20260505015604 22 261 4.8 20.9 0.00 0.00 0.00 30 1005.2
20260505014603 22 320 3.2 24.1 0.00 0.00 0.00 29 1005.2
20260505014104 22 326 9.7 24.1 0.00 0.00 0.00 29 1005.2
20260505013603 23 329 3.2 20.9 0.00 0.00 0.00 30 1005.2
20260505013103 23 314 1.6 19.3 0.00 0.00 0.00 30 1005.2
20260505012603 23 292 1.6 19.3 0.00 0.00 0.00 30 1005.3
20260505012104 23 329 11.3 25.7 0.00 0.00 0.00 29 1005.2
20260505011604 23 323 3.2 22.5 0.00 0.00 0.00 29 1005.3
20260505011103 23 316 1.6 19.3 0.00 0.00 0.00 29 1005.2
20260505010103 24 325 1.6 16.1 0.00 0.00 0.00 26 1005.1
20260505005603 24 327 4.8 22.5 0.00 0.00 0.00 24 1005.1
20260505005103 24 315 3.2 19.3 0.00 0.00 0.00 23 1005.1
20260505004604 24 332 3.2 12.9 0.00 0.00 0.00 25 1005.1
20260505003603 24 325 1.6 16.1 0.00 0.00 0.00 26 1005.3
20260505002603 24 328 3.2 9.7 0.00 0.00 0.00 23 1005.5
20260505002103 24 325 4.8 16.1 0.00 0.00 0.00 22 1005.4
20260505001603 23 323 4.8 16.1 0.00 0.00 0.00 23 1005.6
20260505001103 23 327 8.0 20.9 0.00 0.00 0.00 23 1005.6
20260505000603 23 327 0.0 19.3 0.00 0.00 0.00 25 1005.5
20260504235604 23 330 1.6 12.9 0.00 0.00 0.00 24 1005.5
20260504234603 24 307 4.8 16.1 0.00 0.00 0.00 24 1005.4
20260504234103 23 327 4.8 14.5 0.00 0.00 0.00 25 1005.5
20260504233603 24 316 3.2 14.5 0.00 0.00 0.00 24 1005.6
20260504233103 24 319 3.2 14.5 0.00 0.00 0.00 24 1005.6
20260504232603 25 332 3.2 19.3 0.00 0.00 0.00 24 1005.7
20260504232103 25 325 6.4 25.7 0.00 0.00 0.00 23 1005.8
20260504231603 25 317 4.8 16.1 0.00 0.00 0.00 23 1005.7
20260504231103 25 318 4.8 14.5 0.00 0.00 0.00 24 1005.7
20260504230603 24 339 3.2 12.9 0.00 0.00 0.00 24 1005.7
20260504230103 25 323 3.2 19.3 0.00 0.00 0.00 24 1005.7
20260504225603 25 320 1.6 19.3 0.00 0.00 0.00 23 1005.7
20260504225104 25 326 4.8 14.5 0.00 0.00 0.00 23 1005.8
20260504224603 25 324 9.7 22.5 0.00 0.00 0.00 23 1005.8
20260504224104 25 350 4.8 19.3 0.00 0.00 0.00 24 1005.8
20260504223603 25 324 9.7 19.3 0.00 0.00 0.00 23 1006.0
20260504223104 26 327 3.2 14.5 0.00 0.00 0.00 24 1005.9
20260504222603 26 292 1.6 20.9 0.00 0.00 0.00 24 1006.1
20260504222104 26 322 4.8 16.1 0.00 0.00 0.00 24 1006.0
20260504221604 25 315 3.2 4.8 0.00 0.00 0.00 25 1006.0
20260504221103 25 320 4.8 22.5 0.00 0.00 0.00 24 1006.2
20260504220104 25 313 3.2 22.5 0.00 0.00 0.00 23 1006.4
20260504215103 25 327 3.2 12.9 0.00 0.00 0.00 24 1006.5
20260504214604 26 331 4.8 19.3 0.00 0.00 0.00 23 1006.4
20260504214103 26 331 1.6 8.0 0.00 0.00 0.00 23 1006.3
20260504213603 26 81 0.0 4.8 0.00 0.00 0.00 23 1006.4
20260504213104 25 312 3.2 22.5 0.00 0.00 0.00 23 1006.4
20260504212103 25 329 3.2 19.3 0.00 0.00 0.00 24 1006.7
20260504211603 25 319 9.7 20.9 0.00 0.00 0.00 23 1006.7
20260504211103 26 317 1.6 12.9 0.00 0.00 0.00 24 1006.7
20260504210603 25 329 3.2 16.1 0.00 0.00 0.00 24 1006.8
20260504205603 25 326 4.8 16.1 0.00 0.00 0.00 24 1006.8
20260504205103 26 320 1.6 12.9 0.00 0.00 0.00 24 1006.8
20260504204604 26 323 3.2 9.7 0.00 0.00 0.00 25 1006.8
20260504204103 25 43 0.0 3.2 0.00 0.00 0.00 26 1006.8
20260504203604 25 326 4.8 14.5 0.00 0.00 0.00 25 1006.9
20260504202603 25 326 3.2 14.5 0.00 0.00 0.00 28 1007.0
20260504202104 25 22 0.0 4.8 0.00 0.00 0.00 27 1006.9
20260504201603 25 321 4.8 19.3 0.00 0.00 0.00 27 1006.9
20260504200103 25 12 0.0 3.2 0.00 0.00 0.00 28 1006.9
20260504195103 24 88 0.0 12.9 0.00 0.00 0.00 29 1007.1
20260504194603 24 324 8.0 14.5 0.00 0.00 0.00 28 1007.2
20260504194104 24 36 3.2 20.9 0.00 0.00 0.00 29 1007.1
20260504193104 24 323 3.2 19.3 0.00 0.00 0.00 28 1007.2
20260504192603 24 341 0.0 9.7 0.00 0.00 0.00 29 1007.1
20260504192104 23 329 3.2 16.1 0.00 0.00 0.00 29 1007.2
20260504191604 23 332 6.4 16.1 0.00 0.00 0.00 29 1007.3
20260504191103 23 317 6.4 19.3 0.00 0.00 0.00 29 1007.4
20260504190603 23 316 8.0 19.3 0.00 0.00 0.00 29 1007.3
20260504190104 23 338 1.6 8.0 0.00 0.00 0.00 30 1007.5
20260504185604 23 312 1.6 9.7 0.00 0.00 0.00 30 1007.5
20260504185103 23 322 3.2 19.3 0.00 0.00 0.00 29 1007.6
20260504184103 23 326 6.4 19.3 0.00 0.00 0.00 30 1007.6
20260504183603 23 321 4.8 22.5 0.00 0.00 0.00 31 1007.6
20260504183103 23 339 4.8 20.9 0.00 0.00 0.00 31 1007.7
20260504182603 23 311 3.2 19.3 0.00 0.00 0.00 31 1007.6
20260504182104 23 315 1.6 16.1 0.00 0.00 0.00 31 1007.6
20260504181603 23 306 4.8 14.5 0.00 0.00 0.00 30 1007.6
20260504181104 23 322 3.2 16.1 0.00 0.00 0.00 31 1007.6
20260504180603 23 323 8.0 16.1 0.00 0.00 0.00 30 1007.6
20260504180104 23 317 4.8 12.9 0.00 0.00 0.00 30 1007.7
20260504175604 23 309 6.4 16.1 0.00 0.00 0.00 29 1007.7
20260504174103 23 319 3.2 16.1 0.00 0.00 0.00 31 1007.9
20260504173604 23 319 1.6 14.5 0.00 0.00 0.00 32 1007.9
20260504173104 23 329 3.2 9.7 0.00 0.00 0.00 31 1007.9
20260504172603 23 328 0.0 8.0 0.00 0.00 0.00 31 1007.8
20260504172104 23 336 0.0 1.6 0.00 0.00 0.00 32 1007.9
20260504171103 22 346 0.0 4.8 0.00 0.00 0.00 33 1007.8
20260504170106 22 287 0.0 0.0 0.00 0.00 0.00 36 1007.8
20260504160104 17 232 0.0 0.0 0.00 0.00 0.00 47 1008.1
20260504150603 13 236 1.6 4.8 0.00 0.00 0.00 59 1008.3
20260504150104 13 186 0.0 4.8 0.00 0.00 0.00 60 1008.3
20260504141103 10 234 0.0 0.0 0.00 0.00 0.00 71 1008.3
20260504140603 10 234 0.0 1.6 0.00 0.00 0.00 71 1008.3
20260504140104 9 212 0.0 4.8 0.00 0.00 0.00 72 1008.4